Year,Month,Day,Hour,Minute,Value (Times are PST for temperature in C)
2006,05,17,00,00,14.10
2006,05,17,00,01,14.20
2006,05,17,00,02,14.20
2006,05,17,00,03,14.30
2006,05,17,00,04,14.30
2006,05,17,00,05,14.40
2006,05,17,00,06,14.50
2006,05,17,00,07,14.50
2006,05,17,00,08,14.60
2006,05,17,00,09,14.70
2006,05,17,00,10,14.80
2006,05,17,00,11,14.80
2006,05,17,00,12,14.80
2006,05,17,00,13,14.80
2006,05,17,00,14,14.90
2006,05,17,00,15,15.00
2006,05,17,00,16,15.00
2006,05,17,00,17,15.10
2006,05,17,00,18,15.20
2006,05,17,00,19,15.30
2006,05,17,00,20,15.50
2006,05,17,00,21,15.50
2006,05,17,00,22,15.60
2006,05,17,00,23,15.70
2006,05,17,00,24,15.80
2006,05,17,00,25,15.90
2006,05,17,00,26,16.00
2006,05,17,00,27,16.10
2006,05,17,00,28,16.10
2006,05,17,00,29,16.10
2006,05,17,00,30,16.20
2006,05,17,00,31,16.20
2006,05,17,00,32,16.20
2006,05,17,00,33,16.20
2006,05,17,00,34,16.20
2006,05,17,00,35,16.20
2006,05,17,00,36,16.20
2006,05,17,00,37,16.30
2006,05,17,00,38,16.30
2006,05,17,00,39,16.30
2006,05,17,00,40,16.30
2006,05,17,00,41,16.30
2006,05,17,00,42,16.30
2006,05,17,00,43,16.30
2006,05,17,00,44,16.30
2006,05,17,00,45,16.30
2006,05,17,00,46,16.30
2006,05,17,00,47,16.30
2006,05,17,00,48,16.20
2006,05,17,00,49,16.20
2006,05,17,00,50,16.20
2006,05,17,00,51,16.10
2006,05,17,00,52,16.10
2006,05,17,00,53,16.00
2006,05,17,00,54,15.90
2006,05,17,00,55,15.80
2006,05,17,00,56,15.80
2006,05,17,00,57,15.80
2006,05,17,00,58,15.70
2006,05,17,00,59,15.70
2006,05,17,01,00,15.60
2006,05,17,01,01,15.60
2006,05,17,01,02,15.50
2006,05,17,01,03,15.50
2006,05,17,01,04,15.40
2006,05,17,01,05,15.40
2006,05,17,01,06,15.30
2006,05,17,01,07,15.30
2006,05,17,01,08,15.30
2006,05,17,01,09,15.30
2006,05,17,01,10,15.30
2006,05,17,01,11,15.30
2006,05,17,01,12,15.30
2006,05,17,01,13,15.20
2006,05,17,01,14,15.20
2006,05,17,01,15,15.20
2006,05,17,01,16,15.20
2006,05,17,01,17,15.20
2006,05,17,01,18,15.20
2006,05,17,01,19,15.20
2006,05,17,01,20,15.20
2006,05,17,01,21,15.10
2006,05,17,01,22,15.10
2006,05,17,01,23,15.10
2006,05,17,01,24,15.10
2006,05,17,01,25,15.10
2006,05,17,01,26,15.10
2006,05,17,01,27,15.10
2006,05,17,01,28,15.10
2006,05,17,01,29,15.10
2006,05,17,01,30,15.10
2006,05,17,01,31,15.10
2006,05,17,01,32,15.10
2006,05,17,01,33,15.10
2006,05,17,01,34,15.10
2006,05,17,01,35,15.10
2006,05,17,01,36,15.10
2006,05,17,01,37,15.00
2006,05,17,01,38,15.00
2006,05,17,01,39,15.00
2006,05,17,01,40,15.00
2006,05,17,01,41,15.00
2006,05,17,01,42,15.00
2006,05,17,01,43,15.00
2006,05,17,01,44,15.00
2006,05,17,01,45,15.10
2006,05,17,01,46,15.10
2006,05,17,01,47,15.20
2006,05,17,01,48,15.30
2006,05,17,01,49,15.40
2006,05,17,01,50,15.50
2006,05,17,01,51,15.50
2006,05,17,01,52,15.60
2006,05,17,01,53,15.60
2006,05,17,01,54,15.60
2006,05,17,01,55,15.50
2006,05,17,01,56,15.50
2006,05,17,01,57,15.40
2006,05,17,01,58,15.30
2006,05,17,01,59,15.30
2006,05,17,02,00,15.30
2006,05,17,02,01,15.20
2006,05,17,02,02,15.20
2006,05,17,02,03,15.20
2006,05,17,02,04,15.20
2006,05,17,02,05,15.20
2006,05,17,02,06,15.20
2006,05,17,02,07,15.20
2006,05,17,02,08,15.20
2006,05,17,02,09,15.20
2006,05,17,02,10,15.20
2006,05,17,02,11,15.20
2006,05,17,02,12,15.20
2006,05,17,02,13,15.20
2006,05,17,02,14,15.10
2006,05,17,02,15,15.10
2006,05,17,02,16,15.10
2006,05,17,02,17,15.00
2006,05,17,02,18,15.00
2006,05,17,02,19,14.90
2006,05,17,02,20,14.90
2006,05,17,02,21,14.80
2006,05,17,02,22,14.80
2006,05,17,02,23,14.80
2006,05,17,02,24,14.70
2006,05,17,02,25,14.70
2006,05,17,02,26,14.60
2006,05,17,02,27,14.60
2006,05,17,02,28,14.50
2006,05,17,02,29,14.50
2006,05,17,02,30,14.50
2006,05,17,02,31,14.40
2006,05,17,02,32,14.40
2006,05,17,02,33,14.30
2006,05,17,02,34,14.30
2006,05,17,02,35,14.30
2006,05,17,02,36,14.20
2006,05,17,02,37,14.20
2006,05,17,02,38,14.20
2006,05,17,02,39,14.20
2006,05,17,02,40,14.10
2006,05,17,02,41,14.10
2006,05,17,02,42,14.00
2006,05,17,02,43,14.00
2006,05,17,02,44,13.90
2006,05,17,02,45,13.80
2006,05,17,02,46,13.70
2006,05,17,02,47,13.70
2006,05,17,02,48,13.60
2006,05,17,02,49,13.60
2006,05,17,02,50,13.50
2006,05,17,02,51,13.40
2006,05,17,02,52,13.30
2006,05,17,02,53,13.30
2006,05,17,02,54,13.30
2006,05,17,02,55,13.30
2006,05,17,02,56,13.20
2006,05,17,02,57,13.20
2006,05,17,02,58,13.20
2006,05,17,02,59,13.20
2006,05,17,03,00,13.20
2006,05,17,03,01,13.20
2006,05,17,03,02,13.10
2006,05,17,03,03,13.10
2006,05,17,03,04,13.20
2006,05,17,03,05,13.20
2006,05,17,03,06,13.20
2006,05,17,03,07,13.20
2006,05,17,03,08,13.20
2006,05,17,03,09,13.30
2006,05,17,03,10,13.30
2006,05,17,03,11,13.30
2006,05,17,03,12,13.30
2006,05,17,03,13,13.30
2006,05,17,03,14,13.30
2006,05,17,03,15,13.20
2006,05,17,03,16,13.20
2006,05,17,03,17,13.20
2006,05,17,03,18,13.20
2006,05,17,03,19,13.10
2006,05,17,03,20,13.10
2006,05,17,03,21,13.10
2006,05,17,03,22,13.10
2006,05,17,03,23,13.00
2006,05,17,03,24,13.00
2006,05,17,03,25,13.00
2006,05,17,03,26,13.00
2006,05,17,03,27,12.90
2006,05,17,03,28,12.90
2006,05,17,03,29,12.90
2006,05,17,03,30,12.90
2006,05,17,03,31,12.80
2006,05,17,03,32,12.80
2006,05,17,03,33,12.80
2006,05,17,03,34,12.80
2006,05,17,03,35,12.80
2006,05,17,03,36,12.80
2006,05,17,03,37,12.80
2006,05,17,03,38,12.80
2006,05,17,03,39,12.80
2006,05,17,03,40,12.60
2006,05,17,03,41,12.60
2006,05,17,03,42,12.60
2006,05,17,03,43,12.60
2006,05,17,03,44,12.50
2006,05,17,03,45,12.50
2006,05,17,03,46,12.50
2006,05,17,03,47,12.50
2006,05,17,03,48,12.50
2006,05,17,03,49,12.40
2006,05,17,03,50,12.40
2006,05,17,03,51,12.40
2006,05,17,03,52,12.40
2006,05,17,03,53,12.40
2006,05,17,03,54,12.40
2006,05,17,03,55,12.40
2006,05,17,03,56,12.40
2006,05,17,03,57,12.40
2006,05,17,03,58,12.40
2006,05,17,03,59,12.40
2006,05,17,04,00,12.30
2006,05,17,04,01,12.30
2006,05,17,04,02,12.30
2006,05,17,04,03,12.30
2006,05,17,04,04,12.30
2006,05,17,04,05,12.30
2006,05,17,04,06,12.20
2006,05,17,04,07,12.20
2006,05,17,04,08,12.20
2006,05,17,04,09,12.20
2006,05,17,04,10,12.10
2006,05,17,04,11,12.10
2006,05,17,04,12,12.10
2006,05,17,04,13,12.10
2006,05,17,04,14,12.10
2006,05,17,04,15,12.00
2006,05,17,04,16,12.00
2006,05,17,04,17,12.00
2006,05,17,04,18,12.00
2006,05,17,04,19,11.90
2006,05,17,04,20,11.90
2006,05,17,04,21,11.90
2006,05,17,04,22,11.90
2006,05,17,04,23,11.80
2006,05,17,04,24,11.80
2006,05,17,04,25,11.80
2006,05,17,04,26,11.80
2006,05,17,04,27,11.80
2006,05,17,04,28,11.80
2006,05,17,04,29,11.80
2006,05,17,04,30,11.70
2006,05,17,04,31,11.70
2006,05,17,04,32,11.70
2006,05,17,04,33,11.70
2006,05,17,04,34,11.70
2006,05,17,04,35,11.70
2006,05,17,04,36,11.60
2006,05,17,04,37,11.60
2006,05,17,04,38,11.60
2006,05,17,04,39,11.60
2006,05,17,04,40,11.60
2006,05,17,04,41,11.60
2006,05,17,04,42,11.60
2006,05,17,04,43,11.60
2006,05,17,04,44,11.60
2006,05,17,04,45,11.60
2006,05,17,04,46,11.60
2006,05,17,04,47,11.60
2006,05,17,04,48,11.50
2006,05,17,04,49,11.40
2006,05,17,04,50,11.40
2006,05,17,04,51,11.40
2006,05,17,04,52,11.40
2006,05,17,04,53,11.40
2006,05,17,04,54,11.40
2006,05,17,04,55,11.40
2006,05,17,04,56,11.40
2006,05,17,04,57,11.40
2006,05,17,04,58,11.40
2006,05,17,04,59,11.40
2006,05,17,05,00,11.40
2006,05,17,05,01,11.40
2006,05,17,05,02,11.40
2006,05,17,05,03,11.30
2006,05,17,05,04,11.30
2006,05,17,05,05,11.30
2006,05,17,05,06,11.30
2006,05,17,05,07,11.30
2006,05,17,05,08,11.30
2006,05,17,05,09,11.30
2006,05,17,05,10,11.30
2006,05,17,05,11,11.30
2006,05,17,05,12,11.30
2006,05,17,05,13,11.20
2006,05,17,05,14,11.20
2006,05,17,05,15,11.20
2006,05,17,05,16,11.20
2006,05,17,05,17,11.20
2006,05,17,05,18,11.20
2006,05,17,05,19,11.20
2006,05,17,05,20,11.20
2006,05,17,05,21,11.20
2006,05,17,05,22,11.20
2006,05,17,05,23,11.20
2006,05,17,05,24,11.20
2006,05,17,05,25,11.20
2006,05,17,05,26,11.10
2006,05,17,05,27,11.10
2006,05,17,05,28,11.10
2006,05,17,05,29,11.10
2006,05,17,05,30,11.10
2006,05,17,05,31,11.10
2006,05,17,05,32,11.10
2006,05,17,05,33,11.10
2006,05,17,05,34,11.10
2006,05,17,05,35,11.10
2006,05,17,05,36,11.10
2006,05,17,05,37,11.10
2006,05,17,05,38,11.10
2006,05,17,05,39,11.10
2006,05,17,05,40,11.10
2006,05,17,05,41,11.10
2006,05,17,05,42,11.10
2006,05,17,05,43,11.10
2006,05,17,05,44,11.10
2006,05,17,05,45,11.10
2006,05,17,05,46,11.10
2006,05,17,05,47,11.10
2006,05,17,05,48,11.10
2006,05,17,05,49,11.10
2006,05,17,05,50,11.10
2006,05,17,05,51,11.10
2006,05,17,05,52,11.10
2006,05,17,05,53,11.10
2006,05,17,05,54,11.10
2006,05,17,05,55,11.10
2006,05,17,05,56,11.10
2006,05,17,05,57,11.00
2006,05,17,05,58,10.90
2006,05,17,05,59,10.90
2006,05,17,06,00,10.90
2006,05,17,06,01,10.90
2006,05,17,06,02,10.90
2006,05,17,06,03,10.90
2006,05,17,06,04,10.90
2006,05,17,06,05,10.90
2006,05,17,06,06,10.90
2006,05,17,06,07,11.00
2006,05,17,06,08,11.10
2006,05,17,06,09,11.10
2006,05,17,06,10,11.10
2006,05,17,06,11,11.10
2006,05,17,06,12,11.10
2006,05,17,06,13,11.10
2006,05,17,06,14,11.10
2006,05,17,06,15,11.10
2006,05,17,06,16,11.10
2006,05,17,06,17,11.10
2006,05,17,06,18,11.10
2006,05,17,06,19,11.10
2006,05,17,06,20,11.10
2006,05,17,06,21,11.20
2006,05,17,06,22,11.20
2006,05,17,06,23,11.20
2006,05,17,06,24,11.20
2006,05,17,06,25,11.30
2006,05,17,06,26,11.30
2006,05,17,06,27,11.30
2006,05,17,06,28,11.30
2006,05,17,06,29,11.30
2006,05,17,06,30,11.40
2006,05,17,06,31,11.40
2006,05,17,06,32,11.40
2006,05,17,06,33,11.40
2006,05,17,06,34,11.40
2006,05,17,06,35,11.50
2006,05,17,06,36,11.60
2006,05,17,06,37,11.60
2006,05,17,06,38,11.60
2006,05,17,06,39,11.70
2006,05,17,06,40,11.70
2006,05,17,06,41,11.70
2006,05,17,06,42,11.80
2006,05,17,06,43,11.80
2006,05,17,06,44,11.80
2006,05,17,06,45,11.90
2006,05,17,06,46,11.90
2006,05,17,06,47,12.00
2006,05,17,06,48,12.00
2006,05,17,06,49,12.00
2006,05,17,06,50,12.10
2006,05,17,06,51,12.20
2006,05,17,06,52,12.20
2006,05,17,06,53,12.30
2006,05,17,06,54,12.30
2006,05,17,06,55,12.40
2006,05,17,06,56,12.40
2006,05,17,06,57,12.50
2006,05,17,06,58,12.50
2006,05,17,06,59,12.60
2006,05,17,07,00,12.60
2006,05,17,07,01,12.70
2006,05,17,07,02,12.80
2006,05,17,07,03,12.80
2006,05,17,07,04,12.90
2006,05,17,07,05,13.00
2006,05,17,07,06,13.00
2006,05,17,07,07,13.10
2006,05,17,07,08,13.10
2006,05,17,07,09,13.20
2006,05,17,07,10,13.30
2006,05,17,07,11,13.40
2006,05,17,07,12,13.40
2006,05,17,07,13,13.50
2006,05,17,07,14,13.60
2006,05,17,07,15,13.70
2006,05,17,07,16,13.80
2006,05,17,07,17,13.90
2006,05,17,07,18,14.10
2006,05,17,07,19,14.20
2006,05,17,07,20,14.40
2006,05,17,07,21,14.60
2006,05,17,07,22,14.70
2006,05,17,07,23,14.90
2006,05,17,07,24,15.10
2006,05,17,07,25,15.20
2006,05,17,07,26,15.20
2006,05,17,07,27,15.30
2006,05,17,07,28,15.30
2006,05,17,07,29,15.40
2006,05,17,07,30,15.40
2006,05,17,07,31,15.50
2006,05,17,07,32,15.60
2006,05,17,07,33,15.60
2006,05,17,07,34,15.70
2006,05,17,07,35,15.80
2006,05,17,07,36,15.80
2006,05,17,07,37,15.90
2006,05,17,07,38,16.00
2006,05,17,07,39,16.10
2006,05,17,07,40,16.20
2006,05,17,07,41,16.30
2006,05,17,07,42,16.30
2006,05,17,07,43,16.40
2006,05,17,07,44,16.40
2006,05,17,07,45,16.40
2006,05,17,07,46,16.40
2006,05,17,07,47,16.60
2006,05,17,07,48,16.60
2006,05,17,07,49,16.70
2006,05,17,07,50,16.70
2006,05,17,07,51,16.70
2006,05,17,07,52,16.70
2006,05,17,07,53,16.80
2006,05,17,07,54,16.80
2006,05,17,07,55,16.90
2006,05,17,07,56,17.00
2006,05,17,07,57,17.00
2006,05,17,07,58,17.00
2006,05,17,07,59,17.10
2006,05,17,08,00,17.10
2006,05,17,08,01,17.20
2006,05,17,08,02,17.30
2006,05,17,08,03,17.30
2006,05,17,08,04,17.40
2006,05,17,08,05,17.40
2006,05,17,08,06,17.40
2006,05,17,08,07,17.50
2006,05,17,08,08,17.50
2006,05,17,08,09,17.50
2006,05,17,08,10,17.50
2006,05,17,08,11,17.50
2006,05,17,08,12,17.50
2006,05,17,08,13,17.50
2006,05,17,08,14,17.50
2006,05,17,08,15,17.50
2006,05,17,08,16,17.50
2006,05,17,08,17,17.50
2006,05,17,08,18,17.50
2006,05,17,08,19,17.50
2006,05,17,08,20,17.50
2006,05,17,08,21,17.40
2006,05,17,08,22,17.30
2006,05,17,08,23,17.30
2006,05,17,08,24,17.20
2006,05,17,08,25,17.30
2006,05,17,08,26,17.30
2006,05,17,08,27,17.30
2006,05,17,08,28,17.30
2006,05,17,08,29,17.50
2006,05,17,08,30,17.60
2006,05,17,08,31,17.70
2006,05,17,08,32,17.70
2006,05,17,08,33,17.70
2006,05,17,08,34,17.70
2006,05,17,08,35,17.70
2006,05,17,08,36,17.70
2006,05,17,08,37,17.60
2006,05,17,08,38,17.50
2006,05,17,08,39,17.40
2006,05,17,08,40,17.30
2006,05,17,08,41,17.30
2006,05,17,08,42,17.30
2006,05,17,08,43,17.30
2006,05,17,08,44,17.30
2006,05,17,08,45,17.30
2006,05,17,08,46,17.30
2006,05,17,08,47,17.30
2006,05,17,08,48,17.40
2006,05,17,08,49,17.50
2006,05,17,08,50,17.50
2006,05,17,08,51,17.70
2006,05,17,08,52,17.80
2006,05,17,08,53,17.90
2006,05,17,08,54,17.90
2006,05,17,08,55,18.00
2006,05,17,08,56,18.00
2006,05,17,08,57,17.90
2006,05,17,08,58,17.90
2006,05,17,08,59,17.90
2006,05,17,09,00,17.90
2006,05,17,09,01,17.90
2006,05,17,09,02,17.90
2006,05,17,09,03,17.90
2006,05,17,09,04,17.90
2006,05,17,09,05,17.90
2006,05,17,09,06,17.90
2006,05,17,09,07,17.90
2006,05,17,09,08,17.90
2006,05,17,09,09,17.90
2006,05,17,09,10,17.90
2006,05,17,09,11,17.90
2006,05,17,09,12,17.90
2006,05,17,09,13,18.00
2006,05,17,09,14,18.10
2006,05,17,09,15,18.20
2006,05,17,09,16,18.20
2006,05,17,09,17,18.20
2006,05,17,09,18,18.20
2006,05,17,09,19,18.20
2006,05,17,09,20,18.20
2006,05,17,09,21,18.20
2006,05,17,09,22,18.20
2006,05,17,09,23,18.10
2006,05,17,09,24,18.10
2006,05,17,09,25,18.10
2006,05,17,09,26,18.20
2006,05,17,09,27,18.30
2006,05,17,09,28,18.40
2006,05,17,09,29,18.50
2006,05,17,09,30,18.60
2006,05,17,09,31,18.70
2006,05,17,09,32,18.70
2006,05,17,09,33,18.80
2006,05,17,09,34,18.80
2006,05,17,09,35,18.80
2006,05,17,09,36,18.60
2006,05,17,09,37,18.40
2006,05,17,09,38,18.20
2006,05,17,09,39,17.90
2006,05,17,09,40,17.70
2006,05,17,09,41,17.60
2006,05,17,09,42,17.50
2006,05,17,09,43,17.40
2006,05,17,09,44,17.40
2006,05,17,09,45,17.30
2006,05,17,09,46,17.30
2006,05,17,09,47,17.30
2006,05,17,09,48,17.20
2006,05,17,09,49,17.10
2006,05,17,09,50,17.10
2006,05,17,09,51,17.10
2006,05,17,09,52,17.20
2006,05,17,09,53,17.20
2006,05,17,09,54,17.30
2006,05,17,09,55,17.40
2006,05,17,09,56,17.50
2006,05,17,09,57,17.60
2006,05,17,09,58,17.60
2006,05,17,09,59,17.60
2006,05,17,10,00,17.50
2006,05,17,10,01,17.60
2006,05,17,10,02,17.60
2006,05,17,10,03,17.70
2006,05,17,10,04,17.70
2006,05,17,10,05,17.70
2006,05,17,10,06,17.70
2006,05,17,10,07,17.70
2006,05,17,10,08,17.70
2006,05,17,10,09,17.70
2006,05,17,10,10,17.70
2006,05,17,10,11,17.70
2006,05,17,10,12,17.70
2006,05,17,10,13,17.70
2006,05,17,10,14,17.70
2006,05,17,10,15,17.70
2006,05,17,10,16,17.90
2006,05,17,10,17,17.90
2006,05,17,10,18,17.90
2006,05,17,10,19,17.90
2006,05,17,10,20,17.90
2006,05,17,10,21,17.80
2006,05,17,10,22,17.70
2006,05,17,10,23,17.70
2006,05,17,10,24,17.70
2006,05,17,10,25,17.80
2006,05,17,10,26,17.90
2006,05,17,10,27,17.90
2006,05,17,10,28,18.00
2006,05,17,10,29,18.10
2006,05,17,10,30,18.10
2006,05,17,10,31,18.10
2006,05,17,10,32,18.20
2006,05,17,10,33,18.00
2006,05,17,10,34,18.00
2006,05,17,10,35,18.10
2006,05,17,10,36,18.10
2006,05,17,10,37,18.00
2006,05,17,10,38,18.00
2006,05,17,10,39,18.10
2006,05,17,10,40,18.20
2006,05,17,10,41,18.30
2006,05,17,10,42,18.30
2006,05,17,10,43,18.00
2006,05,17,10,44,17.90
2006,05,17,10,45,17.80
2006,05,17,10,46,17.80
2006,05,17,10,47,17.80
2006,05,17,10,48,17.90
2006,05,17,10,49,17.90
2006,05,17,10,50,17.80
2006,05,17,10,51,17.90
2006,05,17,10,52,17.80
2006,05,17,10,53,17.90
2006,05,17,10,54,17.90
2006,05,17,10,55,17.90
2006,05,17,10,56,17.90
2006,05,17,10,57,17.90
2006,05,17,10,58,18.00
2006,05,17,10,59,18.10
2006,05,17,11,00,18.20
2006,05,17,11,01,18.20
2006,05,17,11,02,18.20
2006,05,17,11,03,18.30
2006,05,17,11,04,18.30
2006,05,17,11,05,18.30
2006,05,17,11,06,18.30
2006,05,17,11,07,18.30
2006,05,17,11,08,18.30
2006,05,17,11,09,18.30
2006,05,17,11,10,18.20
2006,05,17,11,11,18.20
2006,05,17,11,12,18.20
2006,05,17,11,13,18.30
2006,05,17,11,14,18.40
2006,05,17,11,15,18.40
2006,05,17,11,16,18.30
2006,05,17,11,17,18.20
2006,05,17,11,18,18.10
2006,05,17,11,19,18.00
2006,05,17,11,20,17.90
2006,05,17,11,21,17.90
2006,05,17,11,22,18.10
2006,05,17,11,23,18.20
2006,05,17,11,24,18.30
2006,05,17,11,25,18.40
2006,05,17,11,26,18.50
2006,05,17,11,27,18.50
2006,05,17,11,28,18.60
2006,05,17,11,29,18.60
2006,05,17,11,30,18.70
2006,05,17,11,31,18.70
2006,05,17,11,32,18.80
2006,05,17,11,33,18.80
2006,05,17,11,34,18.80
2006,05,17,11,35,18.80
2006,05,17,11,36,18.80
2006,05,17,11,37,18.90
2006,05,17,11,38,18.90
2006,05,17,11,39,19.10
2006,05,17,11,40,19.10
2006,05,17,11,41,19.20
2006,05,17,11,42,19.20
2006,05,17,11,43,19.20
2006,05,17,11,44,19.30
2006,05,17,11,45,19.30
2006,05,17,11,46,19.20
2006,05,17,11,47,19.30
2006,05,17,11,48,19.20
2006,05,17,11,49,19.10
2006,05,17,11,50,18.90
2006,05,17,11,51,18.80
2006,05,17,11,52,18.80
2006,05,17,11,53,18.70
2006,05,17,11,54,18.50
2006,05,17,11,55,18.40
2006,05,17,11,56,18.30
2006,05,17,11,57,18.40
2006,05,17,11,58,18.30
2006,05,17,11,59,18.20
2006,05,17,12,00,18.20
2006,05,17,12,01,18.20
2006,05,17,12,02,18.20
2006,05,17,12,03,18.20
2006,05,17,12,04,18.20
2006,05,17,12,05,18.00
2006,05,17,12,06,17.90
2006,05,17,12,07,17.90
2006,05,17,12,08,17.80
2006,05,17,12,09,17.70
2006,05,17,12,10,17.60
2006,05,17,12,11,17.50
2006,05,17,12,12,17.60
2006,05,17,12,13,17.80
2006,05,17,12,14,18.00
2006,05,17,12,15,18.20
2006,05,17,12,16,18.30
2006,05,17,12,17,18.50
2006,05,17,12,18,18.70
2006,05,17,12,19,18.80
2006,05,17,12,20,18.90
2006,05,17,12,21,18.80
2006,05,17,12,22,18.70
2006,05,17,12,23,18.60
2006,05,17,12,24,18.60
2006,05,17,12,25,18.50
2006,05,17,12,26,18.40
2006,05,17,12,27,18.50
2006,05,17,12,28,18.50
2006,05,17,12,29,18.50
2006,05,17,12,30,18.60
2006,05,17,12,31,18.50
2006,05,17,12,32,18.50
2006,05,17,12,33,18.50
2006,05,17,12,34,18.60
2006,05,17,12,35,18.70
2006,05,17,12,36,18.60
2006,05,17,12,37,18.70
2006,05,17,12,38,18.60
2006,05,17,12,39,18.70
2006,05,17,12,40,18.70
2006,05,17,12,41,18.60
2006,05,17,12,42,18.50
2006,05,17,12,43,18.50
2006,05,17,12,44,18.40
2006,05,17,12,45,18.30
2006,05,17,12,46,18.20
2006,05,17,12,47,18.20
2006,05,17,12,48,18.20
2006,05,17,12,49,18.30
2006,05,17,12,50,18.50
2006,05,17,12,51,18.50
2006,05,17,12,52,18.50
2006,05,17,12,53,18.50
2006,05,17,12,54,18.70
2006,05,17,12,55,18.70
2006,05,17,12,56,18.80
2006,05,17,12,57,18.80
2006,05,17,12,58,18.80
2006,05,17,12,59,18.80
2006,05,17,13,00,18.90
2006,05,17,13,01,18.90
2006,05,17,13,02,18.80
2006,05,17,13,03,18.70
2006,05,17,13,04,18.60
2006,05,17,13,05,18.60
2006,05,17,13,06,18.60
2006,05,17,13,07,18.70
2006,05,17,13,08,18.80
2006,05,17,13,09,18.90
2006,05,17,13,10,18.90
2006,05,17,13,11,18.90
2006,05,17,13,12,19.00
2006,05,17,13,13,19.10
2006,05,17,13,14,19.00
2006,05,17,13,15,18.80
2006,05,17,13,16,18.50
2006,05,17,13,17,18.30
2006,05,17,13,18,18.20
2006,05,17,13,19,18.20
2006,05,17,13,20,18.20
2006,05,17,13,21,18.20
2006,05,17,13,22,18.20
2006,05,17,13,23,18.30
2006,05,17,13,24,18.40
2006,05,17,13,25,18.40
2006,05,17,13,26,18.40
2006,05,17,13,27,18.40
2006,05,17,13,28,18.30
2006,05,17,13,29,18.20
2006,05,17,13,30,18.20
2006,05,17,13,31,18.30
2006,05,17,13,32,18.40
2006,05,17,13,33,18.40
2006,05,17,13,34,18.50
2006,05,17,13,35,18.50
2006,05,17,13,36,18.40
2006,05,17,13,37,18.50
2006,05,17,13,38,18.50
2006,05,17,13,39,18.50
2006,05,17,13,40,18.50
2006,05,17,13,41,18.50
2006,05,17,13,42,18.60
2006,05,17,13,43,18.70
2006,05,17,13,44,18.60
2006,05,17,13,45,18.60
2006,05,17,13,46,18.70
2006,05,17,13,47,18.70
2006,05,17,13,48,18.70
2006,05,17,13,49,18.70
2006,05,17,13,50,18.80
2006,05,17,13,51,18.70
2006,05,17,13,52,18.80
2006,05,17,13,53,19.00
2006,05,17,13,54,19.10
2006,05,17,13,55,19.30
2006,05,17,13,56,19.50
2006,05,17,13,57,19.40
2006,05,17,13,58,19.40
2006,05,17,13,59,19.20
2006,05,17,14,00,19.10
2006,05,17,14,01,18.90
2006,05,17,14,02,18.90
2006,05,17,14,03,18.90
2006,05,17,14,04,18.90
2006,05,17,14,05,18.80
2006,05,17,14,06,18.80
2006,05,17,14,07,18.90
2006,05,17,14,08,19.10
2006,05,17,14,09,19.20
2006,05,17,14,10,19.20
2006,05,17,14,11,19.10
2006,05,17,14,12,19.20
2006,05,17,14,13,19.30
2006,05,17,14,14,19.50
2006,05,17,14,15,19.50
2006,05,17,14,16,19.60
2006,05,17,14,17,19.70
2006,05,17,14,18,19.70
2006,05,17,14,19,19.50
2006,05,17,14,20,19.30
2006,05,17,14,21,19.30
2006,05,17,14,22,19.20
2006,05,17,14,23,19.20
2006,05,17,14,24,19.30
2006,05,17,14,25,19.50
2006,05,17,14,26,19.70
2006,05,17,14,27,19.90
2006,05,17,14,28,19.90
2006,05,17,14,29,20.00
2006,05,17,14,30,20.10
2006,05,17,14,31,20.00
2006,05,17,14,32,19.80
2006,05,17,14,33,19.60
2006,05,17,14,34,19.50
2006,05,17,14,35,19.50
2006,05,17,14,36,19.50
2006,05,17,14,37,19.50
2006,05,17,14,38,19.40
2006,05,17,14,39,19.50
2006,05,17,14,40,19.60
2006,05,17,14,41,19.60
2006,05,17,14,42,19.60
2006,05,17,14,43,19.60
2006,05,17,14,44,19.70
2006,05,17,14,45,19.80
2006,05,17,14,46,19.90
2006,05,17,14,47,20.00
2006,05,17,14,48,20.10
2006,05,17,14,49,20.20
2006,05,17,14,50,20.20
2006,05,17,14,51,20.20
2006,05,17,14,52,20.40
2006,05,17,14,53,20.30
2006,05,17,14,54,20.40
2006,05,17,14,55,20.40
2006,05,17,14,56,20.30
2006,05,17,14,57,20.20
2006,05,17,14,58,20.20
2006,05,17,14,59,20.30
2006,05,17,15,00,20.30
2006,05,17,15,01,20.40
2006,05,17,15,02,20.40
2006,05,17,15,03,20.50
2006,05,17,15,04,20.50
2006,05,17,15,05,20.40
2006,05,17,15,06,20.30
2006,05,17,15,07,20.20
2006,05,17,15,08,20.20
2006,05,17,15,09,20.20
2006,05,17,15,10,20.20
2006,05,17,15,11,20.20
2006,05,17,15,12,20.40
2006,05,17,15,13,20.50
2006,05,17,15,14,20.60
2006,05,17,15,15,20.60
2006,05,17,15,16,20.60
2006,05,17,15,17,20.50
2006,05,17,15,18,20.40
2006,05,17,15,19,20.30
2006,05,17,15,20,20.30
2006,05,17,15,21,20.20
2006,05,17,15,22,20.20
2006,05,17,15,23,20.20
2006,05,17,15,24,20.20
2006,05,17,15,25,20.30
2006,05,17,15,26,20.30
2006,05,17,15,27,20.40
2006,05,17,15,28,20.30
2006,05,17,15,29,20.20
2006,05,17,15,30,20.20
2006,05,17,15,31,20.20
2006,05,17,15,32,20.30
2006,05,17,15,33,20.40
2006,05,17,15,34,20.50
2006,05,17,15,35,20.60
2006,05,17,15,36,20.70
2006,05,17,15,37,20.70
2006,05,17,15,38,20.60
2006,05,17,15,39,20.50
2006,05,17,15,40,20.50
2006,05,17,15,41,20.60
2006,05,17,15,42,20.60
2006,05,17,15,43,20.70
2006,05,17,15,44,20.80
2006,05,17,15,45,20.90
2006,05,17,15,46,21.00
2006,05,17,15,47,21.10
2006,05,17,15,48,21.30
2006,05,17,15,49,21.30
2006,05,17,15,50,21.30
2006,05,17,15,51,21.30
2006,05,17,15,52,21.50
2006,05,17,15,53,21.60
2006,05,17,15,54,21.70
2006,05,17,15,55,21.90
2006,05,17,15,56,22.00
2006,05,17,15,57,22.00
2006,05,17,15,58,22.20
2006,05,17,15,59,22.20
2006,05,17,16,00,22.40
2006,05,17,16,01,22.50
2006,05,17,16,02,22.60
2006,05,17,16,03,22.60
2006,05,17,16,04,22.60
2006,05,17,16,05,22.60
2006,05,17,16,06,22.70
2006,05,17,16,07,22.60
2006,05,17,16,08,22.60
2006,05,17,16,09,22.60
2006,05,17,16,10,22.60
2006,05,17,16,11,22.50
2006,05,17,16,12,22.40
2006,05,17,16,13,22.50
2006,05,17,16,14,22.50
2006,05,17,16,15,22.60
2006,05,17,16,16,22.60
2006,05,17,16,17,22.60
2006,05,17,16,18,22.60
2006,05,17,16,19,22.50
2006,05,17,16,20,22.50
2006,05,17,16,21,22.50
2006,05,17,16,22,22.40
2006,05,17,16,23,22.60
2006,05,17,16,24,22.70
2006,05,17,16,25,22.90
2006,05,17,16,26,23.00
2006,05,17,16,27,23.20
2006,05,17,16,28,23.40
2006,05,17,16,29,23.60
2006,05,17,16,30,23.70
2006,05,17,16,31,23.90
2006,05,17,16,32,24.10
2006,05,17,16,33,24.10
2006,05,17,16,34,24.20
2006,05,17,16,35,24.20
2006,05,17,16,36,24.20
2006,05,17,16,37,24.20
2006,05,17,16,38,24.20
2006,05,17,16,39,24.10
2006,05,17,16,40,24.20
2006,05,17,16,41,24.10
2006,05,17,16,42,24.10
2006,05,17,16,43,24.10
2006,05,17,16,44,24.10
2006,05,17,16,45,24.00
2006,05,17,16,46,23.90
2006,05,17,16,47,23.80
2006,05,17,16,48,23.70
2006,05,17,16,49,23.70
2006,05,17,16,50,23.70
2006,05,17,16,51,23.70
2006,05,17,16,52,23.70
2006,05,17,16,53,23.70
2006,05,17,16,54,23.70
2006,05,17,16,55,23.70
2006,05,17,16,56,23.70
2006,05,17,16,57,23.80
2006,05,17,16,58,23.80
2006,05,17,16,59,23.90
2006,05,17,17,00,23.90
2006,05,17,17,01,23.90
2006,05,17,17,02,23.90
2006,05,17,17,03,23.90
2006,05,17,17,04,23.90
2006,05,17,17,05,23.90
2006,05,17,17,06,23.90
2006,05,17,17,07,23.90
2006,05,17,17,08,24.00
2006,05,17,17,09,24.10
2006,05,17,17,10,24.20
2006,05,17,17,11,24.30
2006,05,17,17,12,24.30
2006,05,17,17,13,24.30
2006,05,17,17,14,24.30
2006,05,17,17,15,24.30
2006,05,17,17,16,24.20
2006,05,17,17,17,24.20
2006,05,17,17,18,24.10
2006,05,17,17,19,24.10